Year,Month,Day,Hour,Minute,Value (Times are PST for temperature in C)
2008,12,20,00,00,-7.20
2008,12,20,00,01,-7.20
2008,12,20,00,02,-7.20
2008,12,20,00,03,-7.20
2008,12,20,00,04,-7.20
2008,12,20,00,05,-7.20
2008,12,20,00,06,-7.20
2008,12,20,00,07,-7.20
2008,12,20,00,08,-7.20
2008,12,20,00,09,-7.30
2008,12,20,00,10,-7.30
2008,12,20,00,11,-7.30
2008,12,20,00,12,-7.30
2008,12,20,00,13,-7.30
2008,12,20,00,14,-7.30
2008,12,20,00,15,-7.30
2008,12,20,00,16,-7.30
2008,12,20,00,17,-7.30
2008,12,20,00,18,-7.30
2008,12,20,00,19,-7.30
2008,12,20,00,20,-7.30
2008,12,20,00,21,-7.30
2008,12,20,00,22,-7.30
2008,12,20,00,23,-7.30
2008,12,20,00,24,-7.30
2008,12,20,00,25,-7.30
2008,12,20,00,26,-7.30
2008,12,20,00,27,-7.30
2008,12,20,00,28,-7.30
2008,12,20,00,29,-7.30
2008,12,20,00,30,-7.30
2008,12,20,00,31,-7.30
2008,12,20,00,32,-7.30
2008,12,20,00,33,-7.30
2008,12,20,00,34,-7.30
2008,12,20,00,35,-7.40
2008,12,20,00,36,-7.40
2008,12,20,00,37,-7.40
2008,12,20,00,38,-7.40
2008,12,20,00,39,-7.40
2008,12,20,00,40,-7.40
2008,12,20,00,41,-7.40
2008,12,20,00,42,-7.40
2008,12,20,00,43,-7.40
2008,12,20,00,44,-7.40
2008,12,20,00,45,-7.40
2008,12,20,00,46,-7.40
2008,12,20,00,47,-7.40
2008,12,20,00,48,-7.40
2008,12,20,00,49,-7.40
2008,12,20,00,50,-7.40
2008,12,20,00,51,-7.40
2008,12,20,00,52,-7.50
2008,12,20,00,53,-7.50
2008,12,20,00,54,-7.50
2008,12,20,00,55,-7.50
2008,12,20,00,56,-7.50
2008,12,20,00,57,-7.50
2008,12,20,00,58,-7.60
2008,12,20,00,59,-7.60
2008,12,20,01,00,-7.60
2008,12,20,01,01,-7.60
2008,12,20,01,02,-7.60
2008,12,20,01,03,-7.60
2008,12,20,01,04,-7.60
2008,12,20,01,05,-7.60
2008,12,20,01,06,-7.50
2008,12,20,01,07,-7.50
2008,12,20,01,08,-7.50
2008,12,20,01,09,-7.50
2008,12,20,01,10,-7.50
2008,12,20,01,11,-7.50
2008,12,20,01,12,-7.50
2008,12,20,01,13,-7.50
2008,12,20,01,14,-7.50
2008,12,20,01,15,-7.50
2008,12,20,01,16,-7.50
2008,12,20,01,17,-7.50
2008,12,20,01,18,-7.50
2008,12,20,01,19,-7.50
2008,12,20,01,20,-7.50
2008,12,20,01,21,-7.50
2008,12,20,01,22,-7.50
2008,12,20,01,23,-7.60
2008,12,20,01,24,-7.60
2008,12,20,01,25,-7.60
2008,12,20,01,26,-7.60
2008,12,20,01,27,-7.60
2008,12,20,01,28,-7.60
2008,12,20,01,29,-7.60
2008,12,20,01,30,-7.60
2008,12,20,01,31,-7.60
2008,12,20,01,32,-7.60
2008,12,20,01,33,-7.60
2008,12,20,01,34,-7.70
2008,12,20,01,35,-7.70
2008,12,20,01,36,-7.70
2008,12,20,01,37,-7.70
2008,12,20,01,38,-7.70
2008,12,20,01,39,-7.70
2008,12,20,01,40,-7.70
2008,12,20,01,41,-7.70
2008,12,20,01,42,-7.70
2008,12,20,01,43,-7.70
2008,12,20,01,44,-7.70
2008,12,20,01,45,-7.70
2008,12,20,01,46,-7.80
2008,12,20,01,47,-7.80
2008,12,20,01,48,-7.80
2008,12,20,01,49,-7.80
2008,12,20,01,50,-7.80
2008,12,20,01,51,-7.80
2008,12,20,01,52,-7.80
2008,12,20,01,53,-7.80
2008,12,20,01,54,-7.70
2008,12,20,01,55,-7.80
2008,12,20,01,56,-7.80
2008,12,20,01,57,-7.80
2008,12,20,01,58,-7.80
2008,12,20,01,59,-7.80
2008,12,20,02,00,-7.80
2008,12,20,02,01,-7.80
2008,12,20,02,02,-7.80
2008,12,20,02,03,-7.80
2008,12,20,02,04,-7.90
2008,12,20,02,05,-7.90
2008,12,20,02,06,-7.90
2008,12,20,02,07,-7.90
2008,12,20,02,08,-7.90
2008,12,20,02,09,-7.90
2008,12,20,02,10,-7.90
2008,12,20,02,11,-7.90
2008,12,20,02,12,-7.90
2008,12,20,02,13,-8.00
2008,12,20,02,14,-8.00
2008,12,20,02,15,-8.00
2008,12,20,02,16,-8.00
2008,12,20,02,17,-8.00
2008,12,20,02,18,-8.10
2008,12,20,02,19,-8.10
2008,12,20,02,20,-8.10
2008,12,20,02,21,-8.10
2008,12,20,02,22,-8.10
2008,12,20,02,23,-8.10
2008,12,20,02,24,-8.20
2008,12,20,02,25,-8.20
2008,12,20,02,26,-8.20
2008,12,20,02,27,-8.20
2008,12,20,02,28,-8.20
2008,12,20,02,29,-8.20
2008,12,20,02,30,-8.20
2008,12,20,02,31,-8.20
2008,12,20,02,32,-8.20
2008,12,20,02,33,-8.20
2008,12,20,02,34,-8.30
2008,12,20,02,35,-8.30
2008,12,20,02,36,-8.30
2008,12,20,02,37,-8.30
2008,12,20,02,38,-8.30
2008,12,20,02,39,-8.30
2008,12,20,02,40,-8.30
2008,12,20,02,41,-8.30
2008,12,20,02,42,-8.20
2008,12,20,02,43,-8.20
2008,12,20,02,44,-8.20
2008,12,20,02,45,-8.20
2008,12,20,02,46,-8.30
2008,12,20,02,47,-8.30
2008,12,20,02,48,-8.30
2008,12,20,02,49,-8.30
2008,12,20,02,50,-8.30
2008,12,20,02,51,-8.30
2008,12,20,02,52,-8.30
2008,12,20,02,53,-8.30
2008,12,20,02,54,-8.30
2008,12,20,02,55,-8.30
2008,12,20,02,56,-8.30
2008,12,20,02,57,-8.30
2008,12,20,02,58,-8.30
2008,12,20,02,59,-8.30
2008,12,20,03,00,-8.30
2008,12,20,03,01,-8.30
2008,12,20,03,02,-8.30
2008,12,20,03,03,-8.30
2008,12,20,03,04,-8.30
2008,12,20,03,05,-8.30
2008,12,20,03,06,-8.30
2008,12,20,03,07,-8.30
2008,12,20,03,08,-8.30
2008,12,20,03,09,-8.30
2008,12,20,03,10,-8.30
2008,12,20,03,11,-8.30
2008,12,20,03,12,-8.30
2008,12,20,03,13,-8.40
2008,12,20,03,14,-8.40
2008,12,20,03,15,-8.40
2008,12,20,03,16,-8.40
2008,12,20,03,17,-8.40
2008,12,20,03,18,-8.40
2008,12,20,03,19,-8.40
2008,12,20,03,20,-8.40
2008,12,20,03,21,-8.40
2008,12,20,03,22,-8.40
2008,12,20,03,23,-8.40
2008,12,20,03,24,-8.40
2008,12,20,03,25,-8.40
2008,12,20,03,26,-8.40
2008,12,20,03,27,-8.40
2008,12,20,03,28,-8.30
2008,12,20,03,29,-8.30
2008,12,20,03,30,-8.30
2008,12,20,03,31,-8.30
2008,12,20,03,32,-8.30
2008,12,20,03,33,-8.30
2008,12,20,03,34,-8.30
2008,12,20,03,35,-8.30
2008,12,20,03,36,-8.30
2008,12,20,03,37,-8.40
2008,12,20,03,38,-8.40
2008,12,20,03,39,-8.40
2008,12,20,03,40,-8.40
2008,12,20,03,41,-8.40
2008,12,20,03,42,-8.40
2008,12,20,03,43,-8.40
2008,12,20,03,44,-8.40
2008,12,20,03,45,-8.40
2008,12,20,03,46,-8.40
2008,12,20,03,47,-8.40
2008,12,20,03,48,-8.30
2008,12,20,03,49,-8.30
2008,12,20,03,50,-8.30
2008,12,20,03,51,-8.30
2008,12,20,03,52,-8.30
2008,12,20,03,53,-8.30
2008,12,20,03,54,-8.30
2008,12,20,03,55,-8.30
2008,12,20,03,56,-8.30
2008,12,20,03,57,-8.20
2008,12,20,03,58,-8.20
2008,12,20,03,59,-8.20
2008,12,20,04,00,-8.20
2008,12,20,04,01,-8.20
2008,12,20,04,02,-8.20
2008,12,20,04,03,-8.20
2008,12,20,04,04,-8.20
2008,12,20,04,05,-8.20
2008,12,20,04,06,-8.20
2008,12,20,04,07,-8.20
2008,12,20,04,08,-8.20
2008,12,20,04,09,-8.20
2008,12,20,04,10,-8.20
2008,12,20,04,11,-8.20
2008,12,20,04,12,-8.20
2008,12,20,04,13,-8.20
2008,12,20,04,14,-8.20
2008,12,20,04,15,-8.20
2008,12,20,04,16,-8.20
2008,12,20,04,17,-8.20
2008,12,20,04,18,-8.10
2008,12,20,04,19,-8.10
2008,12,20,04,20,-8.10
2008,12,20,04,21,-8.10
2008,12,20,04,22,-8.20
2008,12,20,04,23,-8.20
2008,12,20,04,24,-8.20
2008,12,20,04,25,-8.20
2008,12,20,04,26,-8.20
2008,12,20,04,27,-8.20
2008,12,20,04,28,-8.20
2008,12,20,04,29,-8.20
2008,12,20,04,30,-8.20
2008,12,20,04,31,-8.20
2008,12,20,04,32,-8.20
2008,12,20,04,33,-8.30
2008,12,20,04,34,-8.30
2008,12,20,04,35,-8.30
2008,12,20,04,36,-8.20
2008,12,20,04,37,-8.30
2008,12,20,04,38,-8.30
2008,12,20,04,39,-8.30
2008,12,20,04,40,-8.30
2008,12,20,04,41,-8.30
2008,12,20,04,42,-8.30
2008,12,20,04,43,-8.30
2008,12,20,04,44,-8.30
2008,12,20,04,45,-8.30
2008,12,20,04,46,-8.30
2008,12,20,04,47,-8.30
2008,12,20,04,48,-8.30
2008,12,20,04,49,-8.30
2008,12,20,04,50,-8.30
2008,12,20,04,51,-8.30
2008,12,20,04,52,-8.30
2008,12,20,04,53,-8.30
2008,12,20,04,54,-8.30
2008,12,20,04,55,-8.40
2008,12,20,04,56,-8.40
2008,12,20,04,57,-8.30
2008,12,20,04,58,-8.30
2008,12,20,04,59,-8.30
2008,12,20,05,00,-8.30
2008,12,20,05,01,-8.30
2008,12,20,05,02,-8.30
2008,12,20,05,03,-8.30
2008,12,20,05,04,-8.30
2008,12,20,05,05,-8.30
2008,12,20,05,06,-8.30
2008,12,20,05,07,-8.30
2008,12,20,05,08,-8.20
2008,12,20,05,09,-8.20
2008,12,20,05,10,-8.20
2008,12,20,05,11,-8.20
2008,12,20,05,12,-8.20
2008,12,20,05,13,-8.20
2008,12,20,05,14,-8.20
2008,12,20,05,15,-8.20
2008,12,20,05,16,-8.20
2008,12,20,05,17,-8.20
2008,12,20,05,18,-8.20
2008,12,20,05,19,-8.20
2008,12,20,05,20,-8.20
2008,12,20,05,21,-8.20
2008,12,20,05,22,-8.20
2008,12,20,05,23,-8.20
2008,12,20,05,24,-8.20
2008,12,20,05,25,-8.20
2008,12,20,05,26,-8.20
2008,12,20,05,27,-8.20
2008,12,20,05,28,-8.20
2008,12,20,05,29,-8.20
2008,12,20,05,30,-8.20
2008,12,20,05,31,-8.20
2008,12,20,05,32,-8.20
2008,12,20,05,33,-8.20
2008,12,20,05,34,-8.20
2008,12,20,05,35,-8.20
2008,12,20,05,36,-8.20
2008,12,20,05,37,-8.20
2008,12,20,05,38,-8.20
2008,12,20,05,39,-8.20
2008,12,20,05,40,-8.20
2008,12,20,05,41,-8.20
2008,12,20,05,42,-8.20
2008,12,20,05,43,-8.20
2008,12,20,05,44,-8.20
2008,12,20,05,45,-8.20
2008,12,20,05,46,-8.20
2008,12,20,05,47,-8.20
2008,12,20,05,48,-8.20
2008,12,20,05,49,-8.20
2008,12,20,05,50,-8.20
2008,12,20,05,51,-8.20
2008,12,20,05,52,-8.20
2008,12,20,05,53,-8.20
2008,12,20,05,54,-8.30
2008,12,20,05,55,-8.30
2008,12,20,05,56,-8.30
2008,12,20,05,57,-8.30
2008,12,20,05,58,-8.30
2008,12,20,05,59,-8.30
2008,12,20,06,00,-8.30
2008,12,20,06,01,-8.30
2008,12,20,06,02,-8.30
2008,12,20,06,03,-8.30
2008,12,20,06,04,-8.30
2008,12,20,06,05,-8.30
2008,12,20,06,06,-8.30
2008,12,20,06,07,-8.30
2008,12,20,06,08,-8.30
2008,12,20,06,09,-8.30
2008,12,20,06,10,-8.30
2008,12,20,06,11,-8.40
2008,12,20,06,12,-8.40
2008,12,20,06,13,-8.40
2008,12,20,06,14,-8.40
2008,12,20,06,15,-8.40
2008,12,20,06,16,-8.40
2008,12,20,06,17,-8.40
2008,12,20,06,18,-8.40
2008,12,20,06,19,-8.40
2008,12,20,06,20,-8.40
2008,12,20,06,21,-8.50
2008,12,20,06,22,-8.50
2008,12,20,06,23,-8.50
2008,12,20,06,24,-8.50
2008,12,20,06,25,-8.60
2008,12,20,06,26,-8.60
2008,12,20,06,27,-8.60
2008,12,20,06,28,-8.60
2008,12,20,06,29,-8.60
2008,12,20,06,30,-8.60
2008,12,20,06,31,-8.60
2008,12,20,06,32,-8.60
2008,12,20,06,33,-8.60
2008,12,20,06,34,-8.60
2008,12,20,06,35,-8.60
2008,12,20,06,36,-8.60
2008,12,20,06,37,-8.70
2008,12,20,06,38,-8.70
2008,12,20,06,39,-8.70
2008,12,20,06,40,-8.70
2008,12,20,06,41,-8.70
2008,12,20,06,42,-8.70
2008,12,20,06,43,-8.70
2008,12,20,06,44,-8.70
2008,12,20,06,45,-8.70
2008,12,20,06,46,-8.60
2008,12,20,06,47,-8.60
2008,12,20,06,48,-8.60
2008,12,20,06,49,-8.60
2008,12,20,06,50,-8.60
2008,12,20,06,51,-8.60
2008,12,20,06,52,-8.70
2008,12,20,06,53,-8.70
2008,12,20,06,54,-8.70
2008,12,20,06,55,-8.70
2008,12,20,06,56,-8.70
2008,12,20,06,57,-8.70
2008,12,20,06,58,-8.70
2008,12,20,06,59,-8.70
2008,12,20,07,00,-8.70
2008,12,20,07,01,-8.70
2008,12,20,07,02,-8.70
2008,12,20,07,03,-8.70
2008,12,20,07,04,-8.70
2008,12,20,07,05,-8.70
2008,12,20,07,06,-8.70
2008,12,20,07,07,-8.70
2008,12,20,07,08,-8.80
2008,12,20,07,09,-8.80
2008,12,20,07,10,-8.80
2008,12,20,07,11,-8.80
2008,12,20,07,12,-8.80
2008,12,20,07,13,-8.90
2008,12,20,07,14,-8.90
2008,12,20,07,15,-8.90
2008,12,20,07,16,-9.00
2008,12,20,07,17,-9.00
2008,12,20,07,18,-9.00
2008,12,20,07,19,-9.00
2008,12,20,07,20,-9.10
2008,12,20,07,21,-9.10
2008,12,20,07,22,-9.10
2008,12,20,07,23,-9.10
2008,12,20,07,24,-9.20
2008,12,20,07,25,-9.20
2008,12,20,07,26,-9.20
2008,12,20,07,27,-9.20
2008,12,20,07,28,-9.20
2008,12,20,07,29,-9.20
2008,12,20,07,30,-9.20
2008,12,20,07,31,-9.20
2008,12,20,07,32,-9.20
2008,12,20,07,33,-9.20
2008,12,20,07,34,-9.20
2008,12,20,07,35,-9.20
2008,12,20,07,36,-9.20
2008,12,20,07,37,-9.20
2008,12,20,07,38,-9.20
2008,12,20,07,39,-9.20
2008,12,20,07,40,-9.20
2008,12,20,07,41,-9.20
2008,12,20,07,42,-9.20
2008,12,20,07,43,-9.20
2008,12,20,07,44,-9.20
2008,12,20,07,45,-9.20
2008,12,20,07,46,-9.20
2008,12,20,07,47,-9.20
2008,12,20,07,48,-9.20
2008,12,20,07,49,-9.20
2008,12,20,07,50,-9.20
2008,12,20,07,51,-9.20
2008,12,20,07,52,-9.20
2008,12,20,07,53,-9.20
2008,12,20,07,54,-9.20
2008,12,20,07,55,-9.20
2008,12,20,07,56,-9.20
2008,12,20,07,57,-9.20
2008,12,20,07,58,-9.20
2008,12,20,07,59,-9.10
2008,12,20,08,00,-9.10
2008,12,20,08,01,-9.10
2008,12,20,08,02,-9.10
2008,12,20,08,03,-9.10
2008,12,20,08,04,-9.10
2008,12,20,08,05,-9.00
2008,12,20,08,06,-9.00
2008,12,20,08,07,-9.00
2008,12,20,08,08,-9.00
2008,12,20,08,09,-9.00
2008,12,20,08,10,-8.90
2008,12,20,08,11,-8.90
2008,12,20,08,12,-8.90
2008,12,20,08,13,-8.90
2008,12,20,08,14,-8.90
2008,12,20,08,15,-8.90
2008,12,20,08,16,-8.90
2008,12,20,08,17,-8.80
2008,12,20,08,18,-8.80
2008,12,20,08,19,-8.80
2008,12,20,08,20,-8.80
2008,12,20,08,21,-8.80
2008,12,20,08,22,-8.80
2008,12,20,08,23,-8.90
2008,12,20,08,24,-8.90
2008,12,20,08,25,-8.90
2008,12,20,08,26,-8.90
2008,12,20,08,27,-8.90
2008,12,20,08,28,-8.90
2008,12,20,08,29,-8.90
2008,12,20,08,30,-8.90
2008,12,20,08,31,-8.90
2008,12,20,08,32,-8.90
2008,12,20,08,33,-8.80
2008,12,20,08,34,-8.80
2008,12,20,08,35,-8.80
2008,12,20,08,36,-8.80
2008,12,20,08,37,-8.80
2008,12,20,08,38,-8.80
2008,12,20,08,39,-8.80
2008,12,20,08,40,-8.80
2008,12,20,08,41,-8.80
2008,12,20,08,42,-8.80
2008,12,20,08,43,-8.80
2008,12,20,08,44,-8.80
2008,12,20,08,45,-8.80
2008,12,20,08,46,-8.80
2008,12,20,08,47,-8.70
2008,12,20,08,48,-8.70
2008,12,20,08,49,-8.70
2008,12,20,08,50,-8.70
2008,12,20,08,51,-8.70
2008,12,20,08,52,-8.70
2008,12,20,08,53,-8.60
2008,12,20,08,54,-8.60
2008,12,20,08,55,-8.60
2008,12,20,08,56,-8.60
2008,12,20,08,57,-8.60
2008,12,20,08,58,-8.60
2008,12,20,08,59,-8.60
2008,12,20,09,00,-8.50
2008,12,20,09,01,-8.50
2008,12,20,09,02,-8.50
2008,12,20,09,03,-8.40
2008,12,20,09,04,-8.40
2008,12,20,09,05,-8.40
2008,12,20,09,06,-8.40
2008,12,20,09,07,-8.30
2008,12,20,09,08,-8.30
2008,12,20,09,09,-8.20
2008,12,20,09,10,-8.20
2008,12,20,09,11,-8.10
2008,12,20,09,12,-8.10
2008,12,20,09,13,-8.00
2008,12,20,09,14,-8.00
2008,12,20,09,15,-8.00
2008,12,20,09,16,-7.90
2008,12,20,09,17,-7.90
2008,12,20,09,18,-7.90
2008,12,20,09,19,-7.90
2008,12,20,09,20,-7.80
2008,12,20,09,21,-7.80
2008,12,20,09,22,-7.80
2008,12,20,09,23,-7.80
2008,12,20,09,24,-7.70
2008,12,20,09,25,-7.70
2008,12,20,09,26,-7.70
2008,12,20,09,27,-7.70
2008,12,20,09,28,-7.60
2008,12,20,09,29,-7.60
2008,12,20,09,30,-7.60
2008,12,20,09,31,-7.60
2008,12,20,09,32,-7.60
2008,12,20,09,33,-7.50
2008,12,20,09,34,-7.50
2008,12,20,09,35,-7.40
2008,12,20,09,36,-7.40
2008,12,20,09,37,-7.40
2008,12,20,09,38,-7.40
2008,12,20,09,39,-7.30
2008,12,20,09,40,-7.30
2008,12,20,09,41,-7.30
2008,12,20,09,42,-7.30
2008,12,20,09,43,-7.30
2008,12,20,09,44,-7.20
2008,12,20,09,45,-7.20
2008,12,20,09,46,-7.20
2008,12,20,09,47,-7.20
2008,12,20,09,48,-7.20
2008,12,20,09,49,-7.10
2008,12,20,09,50,-7.10
2008,12,20,09,51,-7.10
2008,12,20,09,52,-7.10
2008,12,20,09,53,-7.00
2008,12,20,09,54,-7.00
2008,12,20,09,55,-7.00
2008,12,20,09,56,-6.90
2008,12,20,09,57,-6.90
2008,12,20,09,58,-6.90
2008,12,20,09,59,-6.80
2008,12,20,10,00,-6.80
2008,12,20,10,01,-6.80
2008,12,20,10,02,-6.80
2008,12,20,10,03,-6.80
2008,12,20,10,04,-6.80
2008,12,20,10,05,-6.80
2008,12,20,10,06,-6.80
2008,12,20,10,07,-6.70
2008,12,20,10,08,-6.70
2008,12,20,10,09,-6.70
2008,12,20,10,10,-6.60
2008,12,20,10,11,-6.60
2008,12,20,10,12,-6.60
2008,12,20,10,13,-6.60
2008,12,20,10,14,-6.60
2008,12,20,10,15,-6.60
2008,12,20,10,16,-6.60
2008,12,20,10,17,-6.50
2008,12,20,10,18,-6.50
2008,12,20,10,19,-6.50
2008,12,20,10,20,-6.50
2008,12,20,10,21,-6.50
2008,12,20,10,22,-6.40
2008,12,20,10,23,-6.40
2008,12,20,10,24,-6.40
2008,12,20,10,25,-6.40
2008,12,20,10,26,-6.40
2008,12,20,10,27,-6.40
2008,12,20,10,28,-6.30
2008,12,20,10,29,-6.30
2008,12,20,10,30,-6.30
2008,12,20,10,31,-6.30
2008,12,20,10,32,-6.30
2008,12,20,10,33,-6.30
2008,12,20,10,34,-6.30
2008,12,20,10,35,-6.20
2008,12,20,10,36,-6.20
2008,12,20,10,37,-6.20
2008,12,20,10,38,-6.20
2008,12,20,10,39,-6.20
2008,12,20,10,40,-6.20
2008,12,20,10,41,-6.20
2008,12,20,10,42,-6.20
2008,12,20,10,43,-6.20
2008,12,20,10,44,-6.20
2008,12,20,10,45,-6.10
2008,12,20,10,46,-6.10
2008,12,20,10,47,-6.10
2008,12,20,10,48,-6.10
2008,12,20,10,49,-6.10
2008,12,20,10,50,-6.10
2008,12,20,10,51,-6.10
2008,12,20,10,52,-6.00
2008,12,20,10,53,-6.00
2008,12,20,10,54,-6.00
2008,12,20,10,55,-6.00
2008,12,20,10,56,-5.90
2008,12,20,10,57,-5.90
2008,12,20,10,58,-5.90
2008,12,20,10,59,-5.90
2008,12,20,11,00,-5.90
2008,12,20,11,01,-5.80
2008,12,20,11,02,-5.80
2008,12,20,11,03,-5.80
2008,12,20,11,04,-5.80
2008,12,20,11,05,-5.80
2008,12,20,11,06,-5.80
2008,12,20,11,07,-5.80
2008,12,20,11,08,-5.80
2008,12,20,11,09,-5.80
2008,12,20,11,10,-5.80
2008,12,20,11,11,-5.80
2008,12,20,11,12,-5.70
2008,12,20,11,13,-5.70
2008,12,20,11,14,-5.70
2008,12,20,11,15,-5.70
2008,12,20,11,16,-5.70
2008,12,20,11,17,-5.70
2008,12,20,11,18,-5.70
2008,12,20,11,19,-5.70
2008,12,20,11,20,-5.70
2008,12,20,11,21,-5.70
2008,12,20,11,22,-5.70
2008,12,20,11,23,-5.70
2008,12,20,11,24,-5.60
2008,12,20,11,25,-5.60
2008,12,20,11,26,-5.60
2008,12,20,11,27,-5.60
2008,12,20,11,28,-5.60
2008,12,20,11,29,-5.60
2008,12,20,11,30,-5.60
2008,12,20,11,31,-5.60
2008,12,20,11,32,-5.60
2008,12,20,11,33,-5.60
2008,12,20,11,34,-5.60
2008,12,20,11,35,-5.60
2008,12,20,11,36,-5.50
2008,12,20,11,37,-5.50
2008,12,20,11,38,-5.50
2008,12,20,11,39,-5.50
2008,12,20,11,40,-5.50
2008,12,20,11,41,-5.50
2008,12,20,11,42,-5.50
2008,12,20,11,43,-5.50
2008,12,20,11,44,-5.50
2008,12,20,11,45,-5.50
2008,12,20,11,46,-5.50
2008,12,20,11,47,-5.50
2008,12,20,11,48,-5.50
2008,12,20,11,49,-5.50
2008,12,20,11,50,-5.50
2008,12,20,11,51,-5.50
2008,12,20,11,52,-5.50
2008,12,20,11,53,-5.50
2008,12,20,11,54,-5.50
2008,12,20,11,55,-5.50
2008,12,20,11,56,-5.50
2008,12,20,11,57,-5.50
2008,12,20,11,58,-5.50
2008,12,20,11,59,-5.40
2008,12,20,12,00,-5.50
2008,12,20,12,01,-5.40
2008,12,20,12,02,-5.40
2008,12,20,12,03,-5.40
2008,12,20,12,04,-5.40
2008,12,20,12,05,-5.40
2008,12,20,12,06,-5.50
2008,12,20,12,07,-5.50
2008,12,20,12,08,-5.50
2008,12,20,12,09,-5.40
2008,12,20,12,10,-5.50
2008,12,20,12,11,-5.50
2008,12,20,12,12,-5.50
2008,12,20,12,13,-5.50
2008,12,20,12,14,-5.50
2008,12,20,12,15,-5.50
2008,12,20,12,16,-5.40
2008,12,20,12,17,-5.40
2008,12,20,12,18,-5.40
2008,12,20,12,19,-5.40
2008,12,20,12,20,-5.40
2008,12,20,12,21,-5.40
2008,12,20,12,22,-5.40
2008,12,20,12,23,-5.40
2008,12,20,12,24,-5.40
2008,12,20,12,25,-5.40
2008,12,20,12,26,-5.40
2008,12,20,12,27,-5.40
2008,12,20,12,28,-5.40
2008,12,20,12,29,-5.40
2008,12,20,12,30,-5.40
2008,12,20,12,31,-5.40
2008,12,20,12,32,-5.40
2008,12,20,12,33,-5.40
2008,12,20,12,34,-5.40
2008,12,20,12,35,-5.40
2008,12,20,12,36,-5.40
2008,12,20,12,37,-5.40
2008,12,20,12,38,-5.40
2008,12,20,12,39,-5.40
2008,12,20,12,40,-5.40
2008,12,20,12,41,-5.40
2008,12,20,12,42,-5.40
2008,12,20,12,43,-5.40
2008,12,20,12,44,-5.40
2008,12,20,12,45,-5.40
2008,12,20,12,46,-5.40
2008,12,20,12,47,-5.30
2008,12,20,12,48,-5.30
2008,12,20,12,49,-5.30
2008,12,20,12,50,-5.30
2008,12,20,12,51,-5.30
2008,12,20,12,52,-5.30
2008,12,20,12,53,-5.30
2008,12,20,12,54,-5.40
2008,12,20,12,55,-5.40
2008,12,20,12,56,-5.40
2008,12,20,12,57,-5.40
2008,12,20,12,58,-5.40
2008,12,20,12,59,-5.40
2008,12,20,13,00,-5.40
2008,12,20,13,01,-5.40
2008,12,20,13,02,-5.40
2008,12,20,13,03,-5.30
2008,12,20,13,04,-5.30
2008,12,20,13,05,-5.30
2008,12,20,13,06,-5.30
2008,12,20,13,07,-5.30
2008,12,20,13,08,-5.30
2008,12,20,13,09,-5.30
2008,12,20,13,10,-5.30
2008,12,20,13,11,-5.30
2008,12,20,13,12,-5.30
2008,12,20,13,13,-5.30
2008,12,20,13,14,-5.20
2008,12,20,13,15,-5.20
2008,12,20,13,16,-5.20
2008,12,20,13,17,-5.20
2008,12,20,13,18,-5.20
2008,12,20,13,19,-5.20
2008,12,20,13,20,-5.20
2008,12,20,13,21,-5.20
2008,12,20,13,22,-5.20
2008,12,20,13,23,-5.20
2008,12,20,13,24,-5.20
2008,12,20,13,25,-5.20
2008,12,20,13,26,-5.20
2008,12,20,13,27,-5.20
2008,12,20,13,28,-5.20
2008,12,20,13,29,-5.10
2008,12,20,13,30,-5.10
2008,12,20,13,31,-5.10
2008,12,20,13,32,-5.10
2008,12,20,13,33,-5.10
2008,12,20,13,34,-5.10
2008,12,20,13,35,-5.10
2008,12,20,13,36,-5.10
2008,12,20,13,37,-5.10
2008,12,20,13,38,-5.10
2008,12,20,13,39,-5.10
2008,12,20,13,40,-5.10
2008,12,20,13,41,-5.10
2008,12,20,13,42,-5.10
2008,12,20,13,43,-5.10
2008,12,20,13,44,-5.20
2008,12,20,13,45,-5.20
2008,12,20,13,46,-5.20
2008,12,20,13,47,-5.20
2008,12,20,13,48,-5.20
2008,12,20,13,49,-5.20
2008,12,20,13,50,-5.20
2008,12,20,13,51,-5.20
2008,12,20,13,52,-5.20
2008,12,20,13,53,-5.20
2008,12,20,13,54,-5.20
2008,12,20,13,55,-5.20
2008,12,20,13,56,-5.20
2008,12,20,13,57,-5.20
2008,12,20,13,58,-5.20
2008,12,20,13,59,-5.20
2008,12,20,14,00,-5.20
2008,12,20,14,01,-5.20
2008,12,20,14,02,-5.20
2008,12,20,14,03,-5.20
2008,12,20,14,04,-5.20
2008,12,20,14,05,-5.20
2008,12,20,14,06,-5.20
2008,12,20,14,07,-5.20
2008,12,20,14,08,-5.20
2008,12,20,14,09,-5.20
2008,12,20,14,10,-5.20
2008,12,20,14,11,-5.20
2008,12,20,14,12,-5.20
2008,12,20,14,13,-5.20
2008,12,20,14,14,-5.20
2008,12,20,14,15,-5.20
2008,12,20,14,16,-5.20
2008,12,20,14,17,-5.20
2008,12,20,14,18,-5.20
2008,12,20,14,19,-5.20
2008,12,20,14,20,-5.20
2008,12,20,14,21,-5.20
2008,12,20,14,22,-5.20
2008,12,20,14,23,-5.20
2008,12,20,14,24,-5.20
2008,12,20,14,25,-5.20
2008,12,20,14,26,-5.20
2008,12,20,14,27,-5.20
2008,12,20,14,28,-5.10
2008,12,20,14,29,-5.10
2008,12,20,14,30,-5.10
2008,12,20,14,31,-5.10
2008,12,20,14,32,-5.10
2008,12,20,14,33,-5.10
2008,12,20,14,34,-5.10
2008,12,20,14,35,-5.10
2008,12,20,14,36,-5.10
2008,12,20,14,37,-5.10
2008,12,20,14,38,-5.10
2008,12,20,14,39,-5.10
2008,12,20,14,40,-5.00
2008,12,20,14,41,-5.00
2008,12,20,14,42,-5.00
2008,12,20,14,43,-5.00
2008,12,20,14,44,-5.00
2008,12,20,14,45,-5.00
2008,12,20,14,46,-4.90
2008,12,20,14,47,-4.90
2008,12,20,14,48,-4.90
2008,12,20,14,49,-4.90
2008,12,20,14,50,-4.90
2008,12,20,14,51,-4.90
2008,12,20,14,52,-4.90
2008,12,20,14,53,-4.90
2008,12,20,14,54,-4.80
2008,12,20,14,55,-4.80
2008,12,20,14,56,-4.80
2008,12,20,14,57,-4.80
2008,12,20,14,58,-4.80
2008,12,20,14,59,-4.80
2008,12,20,15,00,-4.80
2008,12,20,15,01,-4.80
2008,12,20,15,02,-4.80
2008,12,20,15,03,-4.80
2008,12,20,15,04,-4.80
2008,12,20,15,05,-4.80
2008,12,20,15,06,-4.80
2008,12,20,15,07,-4.70
2008,12,20,15,08,-4.70
2008,12,20,15,09,-4.70
2008,12,20,15,10,-4.70
2008,12,20,15,11,-4.70
2008,12,20,15,12,-4.70
2008,12,20,15,13,-4.70
2008,12,20,15,14,-4.70
2008,12,20,15,15,-4.70
2008,12,20,15,16,-4.70
2008,12,20,15,17,-4.70
2008,12,20,15,18,-4.70
2008,12,20,15,19,-4.70
2008,12,20,15,20,-4.70
2008,12,20,15,21,-4.70
2008,12,20,15,22,-4.70
2008,12,20,15,23,-4.70
2008,12,20,15,24,-4.70
2008,12,20,15,25,-4.70
2008,12,20,15,26,-4.70
2008,12,20,15,27,-4.70
2008,12,20,15,28,-4.70
2008,12,20,15,29,-4.70
2008,12,20,15,30,-4.70
2008,12,20,15,31,-4.60
2008,12,20,15,32,-4.60
2008,12,20,15,33,-4.70
2008,12,20,15,34,-4.60
2008,12,20,15,35,-4.60
2008,12,20,15,36,-4.60
2008,12,20,15,37,-4.60
2008,12,20,15,38,-4.60
2008,12,20,15,39,-4.60
2008,12,20,15,40,-4.60
2008,12,20,15,41,-4.60
2008,12,20,15,42,-4.60
2008,12,20,15,43,-4.60
2008,12,20,15,44,-4.60
2008,12,20,15,45,-4.60
2008,12,20,15,46,-4.60
2008,12,20,15,47,-4.60
2008,12,20,15,48,-4.60
2008,12,20,15,49,-4.60
2008,12,20,15,50,-4.60
2008,12,20,15,51,-4.60
2008,12,20,15,52,-4.60
2008,12,20,15,53,-4.60
2008,12,20,15,54,-4.60
2008,12,20,15,55,-4.60
2008,12,20,15,56,-4.60
2008,12,20,15,57,-4.60
2008,12,20,15,58,-4.60
2008,12,20,15,59,-4.60
2008,12,20,16,00,-4.60
2008,12,20,16,01,-4.60
2008,12,20,16,02,-4.60
2008,12,20,16,03,-4.60
2008,12,20,16,04,-4.60
2008,12,20,16,05,-4.60
2008,12,20,16,06,-4.60
2008,12,20,16,07,-4.60
2008,12,20,16,08,-4.60
2008,12,20,16,09,-4.60
2008,12,20,16,10,-4.60
2008,12,20,16,11,-4.60
2008,12,20,16,12,-4.60
2008,12,20,16,13,-4.60
2008,12,20,16,14,-4.60
2008,12,20,16,15,-4.60
2008,12,20,16,16,-4.60
2008,12,20,16,17,-4.60
2008,12,20,16,18,-4.60
2008,12,20,16,19,-4.60
2008,12,20,16,20,-4.60
2008,12,20,16,21,-4.60
2008,12,20,16,22,-4.60
2008,12,20,16,23,-4.60
2008,12,20,16,24,-4.60
2008,12,20,16,25,-4.60
2008,12,20,16,26,-4.60
2008,12,20,16,27,-4.60
2008,12,20,16,28,-4.60
2008,12,20,16,29,-4.60
2008,12,20,16,30,-4.60
2008,12,20,16,31,-4.60
2008,12,20,16,32,-4.60
2008,12,20,16,33,-4.60
2008,12,20,16,34,-4.60
2008,12,20,16,35,-4.60
2008,12,20,16,36,-4.60
2008,12,20,16,37,-4.60
2008,12,20,16,38,-4.60
2008,12,20,16,39,-4.60
2008,12,20,16,40,-4.60
2008,12,20,16,41,-4.70
2008,12,20,16,42,-4.70
2008,12,20,16,43,-4.70
2008,12,20,16,44,-4.70
2008,12,20,16,45,-4.70
2008,12,20,16,46,-4.70
2008,12,20,16,47,-4.70
2008,12,20,16,48,-4.70
2008,12,20,16,49,-4.70
2008,12,20,16,50,-4.70
2008,12,20,16,51,-4.80
2008,12,20,16,52,-4.80
2008,12,20,16,53,-4.80
2008,12,20,16,54,-4.80
2008,12,20,16,55,-4.90
2008,12,20,16,56,-4.90
2008,12,20,16,57,-5.00
2008,12,20,16,58,-5.00
2008,12,20,16,59,-5.00
2008,12,20,17,00,-5.10
2008,12,20,17,01,-5.10
2008,12,20,17,02,-5.10
2008,12,20,17,03,-5.20
2008,12,20,17,04,-5.20
2008,12,20,17,05,-5.20
2008,12,20,17,06,-5.30
2008,12,20,17,07,-5.30
2008,12,20,17,08,-5.30
2008,12,20,17,09,-5.30
2008,12,20,17,10,-5.30
2008,12,20,17,11,-5.40
2008,12,20,17,12,-5.40
2008,12,20,17,13,-5.40
2008,12,20,17,14,-5.50
2008,12,20,17,15,-5.50
2008,12,20,17,16,-5.50
2008,12,20,17,17,-5.50
2008,12,20,17,18,-5.60
2008,12,20,17,19,-5.60